VIV730 MMMY-KMIA

Flight info

Callsign VIV730
Flight time N/A
Altitude 35000
Route XOTAT1 XOTAT UT11 OTOGU UM580 IRDOV M580 MARCI FROGZ5
Aircraft A320/M-SDE3FGHIRWY/LB1

Departure

Time 2026-04-21 21:12
Airport Monterrey International Airport (MMMY)

Arrival

Time N/A
Airport Miami International Airport (KMIA)
Time Latitude Longitude Altitude Speed Heading
2026-04-21 21:10 25.78391 -100.11677 1331 ft 19 kts 108°
2026-04-21 21:10 25.78360 -100.11613 1330 ft 6 kts 122°
2026-04-21 21:10 25.78335 -100.11568 1331 ft 13 kts 121°
2026-04-21 21:11 25.78237 -100.11380 1331 ft 57 kts 122°
2026-04-21 21:11 25.77922 -100.10815 1331 ft 112 kts 120°
2026-04-21 21:11 25.77439 -100.09933 1334 ft 154 kts 121°
2026-04-21 21:11 25.76864 -100.08876 1822 ft 159 kts 119°
2026-04-21 21:12 25.76370 -100.07776 2456 ft 159 kts 113°
2026-04-21 21:12 25.75962 -100.06592 2817 ft 174 kts 111°
2026-04-21 21:12 25.75558 -100.05244 3015 ft 197 kts 112°
2026-04-21 21:12 25.74922 -100.03782 3270 ft 222 kts 118°
2026-04-21 21:13 25.74144 -100.02191 3627 ft 244 kts 119°
2026-04-21 21:13 25.73319 -100.00495 4260 ft 254 kts 118°
2026-04-21 21:13 25.72488 -99.98733 4983 ft 262 kts 118°
2026-04-21 21:13 25.71648 -99.96903 5617 ft 272 kts 117°
2026-04-21 21:14 25.70796 -99.94995 6238 ft 281 kts 116°
2026-04-21 21:14 25.69932 -99.93020 6863 ft 287 kts 115°
2026-04-21 21:14 25.69252 -99.90941 7479 ft 293 kts 104°
2026-04-21 21:14 25.68930 -99.88657 8110 ft 298 kts 92°
2026-04-21 21:15 25.68996 -99.86376 8721 ft 303 kts 82°
2026-04-21 21:15 25.69300 -99.84058 9379 ft 306 kts 85°
2026-04-21 21:15 25.69279 -99.81678 10044 ft 310 kts 96°
2026-04-21 21:15 25.68846 -99.79257 10213 ft 331 kts 107°
2026-04-21 21:16 25.68140 -99.76750 10409 ft 348 kts 108°
2026-04-21 21:16 25.67415 -99.74161 10887 ft 354 kts 108°
2026-04-21 21:16 25.66687 -99.71531 11425 ft 359 kts 107°
2026-04-21 21:16 25.65953 -99.68862 11976 ft 363 kts 107°
2026-04-21 21:17 25.65219 -99.66168 12530 ft 367 kts 107°
2026-04-21 21:17 25.64486 -99.63476 13080 ft 371 kts 108°
2026-04-21 21:17 25.63734 -99.60719 13636 ft 375 kts 108°
2026-04-21 21:17 25.62974 -99.57940 14182 ft 377 kts 107°
2026-04-21 21:18 25.62211 -99.55164 14685 ft 379 kts 108°
2026-04-21 21:18 25.61441 -99.52364 14862 ft 380 kts 108°
2026-04-21 21:18 25.60670 -99.49556 14908 ft 380 kts 108°
2026-04-21 21:18 25.59899 -99.46754 14915 ft 380 kts 108°
2026-04-21 21:19 25.59124 -99.43943 14918 ft 379 kts 108°
2026-04-21 21:19 25.58356 -99.41152 14910 ft 379 kts 108°
2026-04-21 21:19 25.57585 -99.38359 14904 ft 379 kts 108°
2026-04-21 21:19 25.56813 -99.35572 14909 ft 379 kts 108°
2026-04-21 21:20 25.56048 -99.32818 14912 ft 379 kts 108°
2026-04-21 21:20 25.55275 -99.30036 14929 ft 380 kts 108°
2026-04-21 21:20 25.54492 -99.27216 15395 ft 383 kts 108°
2026-04-21 21:20 25.53710 -99.24391 15900 ft 386 kts 108°
2026-04-21 21:21 25.52921 -99.21541 16374 ft 389 kts 108°
2026-04-21 21:21 25.52119 -99.18656 16864 ft 393 kts 108°
2026-04-21 21:21 25.51310 -99.15749 17343 ft 397 kts 108°
2026-04-21 21:21 25.50494 -99.12812 17826 ft 401 kts 108°
2026-04-21 21:22 25.49672 -99.09850 18310 ft 404 kts 108°
2026-04-21 21:22 25.48841 -99.06862 18722 ft 408 kts 108°
2026-04-21 21:22 25.48003 -99.03850 19129 ft 411 kts 108°
2026-04-21 21:22 25.47165 -99.00849 19538 ft 415 kts 108°
2026-04-21 21:23 25.46298 -98.97749 19952 ft 418 kts 108°
2026-04-21 21:23 25.45444 -98.94699 20350 ft 422 kts 108°
2026-04-21 21:23 25.44570 -98.91582 20734 ft 426 kts 108°
2026-04-21 21:23 25.43678 -98.88408 21109 ft 429 kts 109°
2026-04-21 21:24 25.42795 -98.85276 21473 ft 433 kts 109°
2026-04-21 21:24 25.41899 -98.82098 21852 ft 436 kts 109°
2026-04-21 21:24 25.40988 -98.78862 22221 ft 440 kts 109°
2026-04-21 21:24 25.40074 -98.75614 22585 ft 444 kts 109°
2026-04-21 21:25 25.39158 -98.72345 22948 ft 447 kts 108°
2026-04-21 21:25 25.38234 -98.69048 23284 ft 450 kts 108°
2026-04-21 21:25 25.37303 -98.65731 23642 ft 453 kts 108°
2026-04-21 21:25 25.36362 -98.62390 23950 ft 456 kts 108°
2026-04-21 21:26 25.35415 -98.59041 24254 ft 459 kts 108°
2026-04-21 21:26 25.34460 -98.55667 24564 ft 461 kts 108°
2026-04-21 21:26 25.33500 -98.52266 24885 ft 464 kts 108°
2026-04-21 21:26 25.32533 -98.48851 25203 ft 466 kts 108°
2026-04-21 21:27 25.31558 -98.45425 25506 ft 468 kts 108°
2026-04-21 21:27 25.30577 -98.41986 25822 ft 471 kts 108°
2026-04-21 21:27 25.29590 -98.38523 26130 ft 473 kts 108°
2026-04-21 21:27 25.28601 -98.35050 26446 ft 475 kts 108°
2026-04-21 21:28 25.27603 -98.31553 26750 ft 478 kts 108°
2026-04-21 21:28 25.26604 -98.28046 27055 ft 480 kts 108°
2026-04-21 21:28 25.24587 -98.20978 27643 ft 485 kts 108°
2026-04-21 21:29 25.23567 -98.17426 27942 ft 487 kts 108°
2026-04-21 21:29 25.22538 -98.13846 28246 ft 489 kts 108°
2026-04-21 21:29 25.21505 -98.10246 28546 ft 492 kts 108°
2026-04-21 21:29 25.20486 -98.06691 28844 ft 494 kts 108°
2026-04-21 21:30 25.19446 -98.03056 29143 ft 497 kts 108°
2026-04-21 21:30 25.18398 -97.99403 29439 ft 499 kts 108°
2026-04-21 21:30 25.17346 -97.95746 29746 ft 501 kts 108°
2026-04-21 21:30 25.16286 -97.92073 30065 ft 503 kts 108°
2026-04-21 21:31 25.15220 -97.88383 30331 ft 505 kts 109°
2026-04-21 21:31 25.14147 -97.84670 30584 ft 507 kts 109°
2026-04-21 21:31 25.13071 -97.80953 30837 ft 509 kts 109°
2026-04-21 21:31 25.11995 -97.77228 31067 ft 511 kts 109°
2026-04-21 21:32 25.10913 -97.73485 31317 ft 513 kts 109°
2026-04-21 21:32 25.09827 -97.69732 31568 ft 514 kts 109°
2026-04-21 21:32 25.08737 -97.65968 31819 ft 516 kts 109°
2026-04-21 21:32 25.07655 -97.62246 32142 ft 516 kts 109°
2026-04-21 21:33 25.06555 -97.58471 32525 ft 515 kts 109°
2026-04-21 21:33 25.05463 -97.54720 32878 ft 514 kts 109°
2026-04-21 21:33 25.04370 -97.50955 33225 ft 513 kts 109°
2026-04-21 21:33 25.03286 -97.47215 33570 ft 513 kts 110°
2026-04-21 21:34 25.02191 -97.43451 33918 ft 512 kts 110°
2026-04-21 21:34 25.01104 -97.39724 34241 ft 512 kts 110°
2026-04-21 21:34 25.00005 -97.35979 34559 ft 511 kts 110°
2026-04-21 21:34 24.98910 -97.32257 34858 ft 510 kts 110°
2026-04-21 21:35 24.97819 -97.28543 35038 ft 510 kts 110°
2026-04-21 21:35 24.96026 -97.22413 35070 ft 501 kts 110°
2026-04-21 21:36 24.93540 -97.13934 35071 ft 499 kts 110°
2026-04-21 21:36 24.91413 -97.06726 35070 ft 498 kts 110°
2026-04-21 21:37 24.89601 -97.00618 35072 ft 498 kts 111°
2026-04-21 21:37 24.87451 -96.93355 35078 ft 499 kts 110°
2026-04-21 21:38 24.85310 -96.86084 35073 ft 499 kts 110°
2026-04-21 21:38 24.83147 -96.78811 35069 ft 499 kts 110°
2026-04-21 21:39 24.80978 -96.71561 35074 ft 500 kts 110°
2026-04-21 21:39 24.78820 -96.64324 35084 ft 500 kts 110°
2026-04-21 21:40 24.76645 -96.57026 35088 ft 500 kts 110°
2026-04-21 21:40 24.74466 -96.49732 35096 ft 500 kts 110°
2026-04-21 21:41 24.72281 -96.42470 35092 ft 500 kts 110°
2026-04-21 21:41 24.70090 -96.35197 35098 ft 500 kts 110°
2026-04-21 21:42 24.67913 -96.27986 35095 ft 500 kts 110°
2026-04-21 21:42 24.65724 -96.20721 35100 ft 500 kts 110°
2026-04-21 21:43 24.63530 -96.13461 35100 ft 500 kts 110°
2026-04-21 21:43 24.61337 -96.06215 35093 ft 500 kts 110°
2026-04-21 21:44 24.59138 -95.98951 35095 ft 500 kts 110°
2026-04-21 21:44 24.56929 -95.91700 35097 ft 501 kts 110°
2026-04-21 21:45 24.54713 -95.84443 35100 ft 500 kts 110°
2026-04-21 21:45 24.52507 -95.77193 35103 ft 501 kts 110°
2026-04-21 21:46 24.50295 -95.69938 35106 ft 501 kts 110°
2026-04-21 21:46 24.48073 -95.62699 35106 ft 501 kts 110°
2026-04-21 21:47 24.45865 -95.55490 35107 ft 501 kts 110°
2026-04-21 21:47 24.43632 -95.48235 35108 ft 500 kts 111°
2026-04-21 21:48 24.41404 -95.41004 35103 ft 500 kts 110°
2026-04-21 21:48 24.39164 -95.33757 35099 ft 500 kts 111°
2026-04-21 21:49 24.36929 -95.26530 35104 ft 500 kts 110°
2026-04-21 21:49 24.34695 -95.19333 35103 ft 501 kts 110°
2026-04-21 21:50 24.32450 -95.12094 35105 ft 501 kts 110°
2026-04-21 21:50 24.30203 -95.04868 35086 ft 501 kts 111°
2026-04-21 21:51 24.27949 -94.97633 35093 ft 500 kts 111°
2026-04-21 21:51 24.25695 -94.90427 35104 ft 500 kts 111°
2026-04-21 21:52 24.23425 -94.83219 35107 ft 500 kts 111°
2026-04-21 21:52 24.21171 -94.76062 35110 ft 499 kts 111°
2026-04-21 21:53 24.18907 -94.68866 35113 ft 499 kts 111°
2026-04-21 21:53 24.16654 -94.61676 35114 ft 499 kts 111°
2026-04-21 21:54 24.14356 -94.54501 35114 ft 498 kts 112°
2026-04-21 21:54 24.11779 -94.47472 35106 ft 497 kts 115°
2026-04-21 21:55 24.09055 -94.40510 35115 ft 497 kts 115°
2026-04-21 21:55 24.06374 -94.33507 35110 ft 498 kts 114°
2026-04-21 21:56 24.03760 -94.26494 35110 ft 498 kts 114°
2026-04-21 21:56 24.01149 -94.19465 35101 ft 498 kts 114°
2026-04-21 21:57 23.98529 -94.12488 35108 ft 497 kts 115°
2026-04-21 21:57 23.95890 -94.05498 35107 ft 497 kts 115°
2026-04-21 21:58 23.93249 -93.98509 35112 ft 497 kts 115°
2026-04-21 21:58 23.90604 -93.91512 35115 ft 497 kts 115°
2026-04-21 21:59 23.87963 -93.84539 35116 ft 496 kts 115°
2026-04-21 21:59 23.85323 -93.77559 35111 ft 496 kts 115°
2026-04-21 22:00 23.82695 -93.70642 35108 ft 496 kts 115°
2026-04-21 22:00 23.80042 -93.63679 35110 ft 496 kts 115°
2026-04-21 22:01 23.77383 -93.56680 35111 ft 496 kts 115°
2026-04-21 22:01 23.74736 -93.49718 35106 ft 496 kts 115°
2026-04-21 22:02 23.72102 -93.42817 35103 ft 496 kts 115°
2026-04-21 22:02 23.69448 -93.35879 35095 ft 495 kts 115°
2026-04-21 22:03 23.66794 -93.28951 35108 ft 494 kts 115°
2026-04-21 22:03 23.64142 -93.22018 35116 ft 494 kts 115°
2026-04-21 22:04 23.61492 -93.15107 35108 ft 494 kts 115°
2026-04-21 22:04 23.58841 -93.08198 35116 ft 494 kts 115°
2026-04-21 22:05 23.56182 -93.01291 35113 ft 494 kts 115°
2026-04-21 22:05 23.53529 -92.94418 35111 ft 494 kts 115°
2026-04-21 22:06 23.50857 -92.87516 35108 ft 494 kts 115°
2026-04-21 22:06 23.48186 -92.80618 35104 ft 494 kts 115°
2026-04-21 22:07 23.45518 -92.73731 35100 ft 494 kts 115°
2026-04-21 22:07 23.42841 -92.66819 35106 ft 494 kts 115°
2026-04-21 22:08 23.40155 -92.59922 35096 ft 494 kts 115°
2026-04-21 22:08 23.37478 -92.53064 35108 ft 494 kts 115°
2026-04-21 22:09 23.34789 -92.46168 35110 ft 495 kts 115°
2026-04-21 22:09 23.32101 -92.39275 35109 ft 495 kts 115°
2026-04-21 22:10 23.29403 -92.32383 35111 ft 495 kts 116°
2026-04-21 22:10 23.26700 -92.25482 35118 ft 495 kts 115°
2026-04-21 22:11 23.24007 -92.18615 35116 ft 496 kts 116°
2026-04-21 22:11 23.21294 -92.11715 35114 ft 496 kts 115°
2026-04-21 22:12 23.18584 -92.04816 35113 ft 496 kts 116°
2026-04-21 22:12 23.15862 -91.97908 35112 ft 496 kts 116°
2026-04-21 22:13 23.13141 -91.91025 35115 ft 495 kts 116°
2026-04-21 22:13 23.10411 -91.84131 35110 ft 496 kts 116°
2026-04-21 22:14 23.07710 -91.77290 35095 ft 496 kts 116°
2026-04-21 22:14 23.04992 -91.70409 35099 ft 496 kts 116°
2026-04-21 22:15 23.02256 -91.63521 35103 ft 496 kts 116°
2026-04-21 22:15 22.99513 -91.56630 35107 ft 497 kts 115°
2026-04-21 22:16 22.97819 -91.49351 35110 ft 501 kts 94°
2026-04-21 22:16 22.97864 -91.45577 35106 ft 500 kts 82°
2026-04-21 22:16 22.98508 -91.41875 35103 ft 498 kts 71°
2026-04-21 22:16 22.99705 -91.38378 35099 ft 494 kts 60°
2026-04-21 22:17 23.01259 -91.35139 35093 ft 492 kts 58°
2026-04-21 22:17 23.04473 -91.28545 35091 ft 493 kts 58°
2026-04-21 22:18 23.07679 -91.21963 35087 ft 493 kts 58°
2026-04-21 22:18 23.10896 -91.15367 35109 ft 494 kts 58°
2026-04-21 22:19 23.13582 -91.09843 35113 ft 494 kts 58°
2026-04-21 22:19 23.16772 -91.03266 35106 ft 494 kts 58°
2026-04-21 22:20 23.19977 -90.96653 35105 ft 494 kts 58°
2026-04-21 22:20 23.23178 -90.90052 35102 ft 494 kts 58°
2026-04-21 22:21 23.26374 -90.83423 35100 ft 494 kts 59°
2026-04-21 22:21 23.29568 -90.76801 35102 ft 494 kts 58°
2026-04-21 22:22 23.32760 -90.70187 35104 ft 494 kts 58°
2026-04-21 22:22 23.35960 -90.63559 35102 ft 494 kts 58°
2026-04-21 22:23 23.39131 -90.56980 35113 ft 494 kts 58°
2026-04-21 22:23 23.42321 -90.50333 35111 ft 494 kts 59°
2026-04-21 22:24 23.45505 -90.43677 35116 ft 494 kts 58°
2026-04-21 22:24 23.48682 -90.37045 35113 ft 494 kts 58°
2026-04-21 22:25 23.51867 -90.30382 35116 ft 494 kts 58°
2026-04-21 22:25 23.55017 -90.23777 35121 ft 494 kts 58°
2026-04-21 22:26 23.58217 -90.17083 35120 ft 495 kts 58°
2026-04-21 22:26 23.61374 -90.10461 35117 ft 495 kts 58°